Notices

What's New in latest Release from April 7th, 2021:

- Updated Glossary, including Speed of Maximum Gust, and Total Hourly Precipitation

- Updated national and regional climate services offices contacts and prices information

- Addition of station inventory lists for 1981-2010, 1971-2000, and 1961-1990 Normals.

If you haven't already, please take our survey and provide feedback about our website: https://eccc.sondage-survey.ca/f/LanguageSelection.aspx?s=442ca660-fcf1-47c0-95a9-59707d6fd709

Hourly Data Report for June 27, 2006

TORONTO CITY
ONTARIO

43°40'00.000" N
79°24'00.000" W
112.50 m
6158355
71508
XTO

Download Data

Hourly Data (June 2006)
Hourly Data Report for June 27, 2006
TIME
LST
Temp Definition
°C
Dew Point Definition
°C
Rel Hum Definition
%
Precip. Amount Definition
mm

Wind Dir Definition
10's deg

Wind Spd Definition
km/h
Visibility Definition
km
Stn Press Definition
kPa
Hmdx Definition


Wind Chill Definition


Weather Definition


00:00 20.4 19.6 95   LegendMM LegendMM   99.98 28   LegendNANA
01:00 19.7 19.4 98   LegendMM LegendMM   99.95     LegendNANA
02:00 19.3 19.1 99   LegendMM LegendMM   99.91     LegendNANA
03:00 19.4 19.3 99   LegendMM LegendMM   99.90     LegendNANA
04:00 19.6 19.5 99   LegendMM LegendMM   99.89     LegendNANA
05:00 19.6 19.5 99   LegendMM LegendMM   99.90     LegendNANA
06:00 19.6 19.5 99   LegendMM LegendMM   99.95     LegendNANA
07:00 19.6 19.5 99   LegendMM LegendMM   99.96     LegendNANA
08:00 19.7 19.6 99   LegendMM LegendMM   99.96     LegendNANA
09:00 20.3 20.1 99   LegendMM LegendMM   99.98 28   LegendNANA
10:00 21.0 20.5 97   LegendMM LegendMM   99.99 29   LegendNANA
11:00 21.6 20.8 95   LegendMM LegendMM   100.00 30   LegendNANA
12:00 21.9 20.8 93   LegendMM LegendMM   99.98 30   LegendNANA
13:00 21.9 20.7 93   LegendMM LegendMM   99.94 30   LegendNANA
14:00 22.6 21.0 91   LegendMM LegendMM   99.93 31   LegendNANA
15:00 23.2 21.1 88   LegendMM LegendMM   99.92 32   LegendNANA
16:00 23.8 21.2 85   LegendMM LegendMM   99.92 32   LegendNANA
17:00 23.6 20.9 85   LegendMM LegendMM   99.88 32   LegendNANA
18:00 23.5 20.8 85   LegendMM LegendMM   99.93 32   LegendNANA
19:00 22.0 19.9 88   LegendMM LegendMM   99.98 29   LegendNANA
20:00 21.7 19.1 85   LegendMM LegendMM   99.99 29   LegendNANA
21:00 21.3 19.9 92   LegendMM LegendMM   100.02 29   LegendNANA
22:00 21.2 20.1 93   LegendMM LegendMM   100.04 29   LegendNANA
23:00 20.9 19.9 94   LegendMM LegendMM   100.02 28   LegendNANA

Notes on Data Quality.

Legend

  • E = Estimated
  • M = Missing
  • NA = Not Available*
  • [empty] = Indicates an unobserved value
Date modified: